Weather History for Palestine, TX

Change the Weather History Date:

Sunday, October 14, 2012

  Actual Average (KTYR) Record (KTYR)
Temperature  
Mean Temperature 72 °F 68 °F  
Max Temperature 85 °F 79 °F 96 °F (1910)
Min Temperature 59 °F 57 °F 36 °F (1977)
Degree Days  
Heating Degree Days 0 2  
Month to date heating degree days 15  
Since 1 July heating degree days 20  
Cooling Degree Days 7 4  
Month to date cooling degree days 78  
Year to date cooling degree days 2342  
Growing Degree Days 22 (Base 50)    
Moisture  
Dew Point 62 °F    
Average Humidity 71    
Maximum Humidity 90    
Minimum Humidity 34    
Precipitation  
Precipitation 0.02 in 0.15 in 3.08 in (1957)
Month to date precipitation 1.95  
Year to date precipitation 34.55  
Snow  
Snow 0.00 in - - ()
Month to date snowfall  
Since 1 July snowfall  
Since 1 September snowfall  
Snow Depth -    
Sea Level Pressure  
Sea Level Pressure 30.02 in    
Wind  
Wind Speed 7 mph (SW)    
Max Wind Speed 12 mph    
Max Gust Speed 16 mph    
Visibility 10 miles    
Events Rain    
T = Trace of Precipitation, MM = Missing Value Source: NWS Daily Summary

Daily Weather History Graph

Daily Weather History Graph

Search for Another Location

Airport:

Trip Planner

Search our weather history database for the weather conditions in past years. The results will help you decide how hot, cold, wet, or windy it might be!

Date:

Astronomy

Oct. 14, 2012 Rise Set
Actual Time 7:25 AM CDT 6:51 PM CDT
Civil Twilight 7:01 AM CDT 7:15 PM CDT
Nautical Twilight 6:32 AM CDT 7:43 PM CDT
Astronomical Twilight 6:04 AM CDT 8:12 PM CDT
Moon 6:27 AM CDT (10/14) 6:12 PM CDT (10/14)
Length of Visible Light 12h 14m
Length of Day
11h 25m
Waning Crescent, 1% of the Moon is Illuminated
Oct 14
Waning Crescent
Oct 15
New
Oct 21
First Quarter
Oct 29
Full
Nov 6
Last Quarter

Hourly Weather History & Observations

Time (CDT) Temp. Heat Index Dew Point Humidity Pressure Visibility Wind Dir Wind Speed Gust Speed Precip Events Conditions
12:15 AM 72.5 °F - 68.2 °F 86% 29.95 in 10.0 mi South 6.9 mph - N/A   Scattered Clouds
12:35 AM 72.5 °F - 68.2 °F 86% 29.94 in 10.0 mi South 6.9 mph - N/A   Scattered Clouds
12:55 AM 72.5 °F - 68.2 °F 86% 29.94 in 10.0 mi South 5.8 mph - N/A   Mostly Cloudy
1:15 AM 72.5 °F - 68.2 °F 86% 29.94 in 10.0 mi South 8.1 mph - N/A   Mostly Cloudy
1:35 AM 72.5 °F - 68.2 °F 86% 29.94 in 10.0 mi SSE 9.2 mph - N/A   Scattered Clouds
1:55 AM 72.5 °F - 68.2 °F 86% 29.95 in 10.0 mi South 6.9 mph - N/A   Clear
2:15 AM 72.5 °F - 68.2 °F 86% 29.96 in 10.0 mi South 5.8 mph - N/A   Scattered Clouds
2:35 AM 72.9 °F - 68.4 °F 86% 29.96 in 10.0 mi South 4.6 mph - N/A   Overcast
2:55 AM 72.9 °F - 68.4 °F 86% 29.96 in 10.0 mi South 6.9 mph - N/A   Overcast
3:15 AM 73.0 °F - 68.4 °F 85% 29.96 in 10.0 mi South 6.9 mph - N/A   Overcast
3:35 AM 73.4 °F - 68.5 °F 85% 29.95 in 10.0 mi South 8.1 mph - N/A   Overcast
3:55 AM 73.4 °F - 68.4 °F 84% 29.95 in 10.0 mi South 6.9 mph - N/A   Overcast
4:15 AM 73.6 °F - 68.5 °F 84% 29.95 in 10.0 mi South 11.5 mph - N/A   Overcast
4:35 AM 73.8 °F - 68.7 °F 84% 29.95 in 10.0 mi SSW 9.2 mph 16.1 mph N/A   Overcast
4:55 AM 73.8 °F - 68.5 °F 84% 29.98 in 10.0 mi WSW 9.2 mph - 0.02 in Rain Heavy Rain
5:15 AM 71.8 °F - 66.7 °F 84% 29.98 in 7.0 mi South 6.9 mph - N/A Rain Light Rain
5:35 AM 71.8 °F - 66.7 °F 84% 29.98 in 10.0 mi South 8.1 mph - N/A   Mostly Cloudy
5:55 AM 71.8 °F - 67.3 °F 86% 29.98 in 10.0 mi South 6.9 mph - N/A   Mostly Cloudy
6:15 AM 72.0 °F - 67.6 °F 86% 29.98 in 10.0 mi South 5.8 mph - N/A   Mostly Cloudy
6:35 AM 72.0 °F - 68.0 °F 87% 29.98 in 10.0 mi South 5.8 mph - N/A   Scattered Clouds
6:55 AM 71.8 °F - 68.0 °F 88% 29.98 in 10.0 mi SSE 5.8 mph - N/A   Clear
7:15 AM 71.2 °F - 67.5 °F 88% 29.98 in 7.0 mi South 5.8 mph - N/A   Clear
7:35 AM 71.2 °F - 67.5 °F 88% 30.00 in 7.0 mi South 8.1 mph - N/A   Mostly Cloudy
7:55 AM 71.2 °F - 67.6 °F 88% 30.01 in 7.0 mi South 6.9 mph - N/A   Scattered Clouds
8:15 AM 71.2 °F - 68.0 °F 89% 30.02 in 10.0 mi SSW 8.1 mph - N/A   Clear
8:35 AM 71.6 °F - 68.0 °F 88% 30.03 in 10.0 mi SSW 6.9 mph - N/A   Clear
8:55 AM 71.6 °F - 68.2 °F 89% 30.05 in 10.0 mi SSW 9.2 mph - N/A   Scattered Clouds
9:15 AM 71.8 °F - 68.5 °F 89% 30.05 in 10.0 mi SSW 8.1 mph - N/A   Mostly Cloudy
9:35 AM 72.7 °F - 69.4 °F 90% 30.05 in 10.0 mi SSW 5.8 mph - N/A   Mostly Cloudy
9:55 AM 72.7 °F - 69.3 °F 89% 30.06 in 10.0 mi SSW 6.9 mph - N/A   Overcast
10:15 AM 72.9 °F - 69.3 °F 88% 30.07 in 10.0 mi SSW 8.1 mph - N/A   Overcast
10:35 AM 73.9 °F - 69.6 °F 86% 30.07 in 10.0 mi SSW 8.1 mph - N/A   Overcast
10:55 AM 74.3 °F - 69.4 °F 85% 30.08 in 10.0 mi SSW 6.9 mph - N/A   Scattered Clouds
11:15 AM 76.1 °F - 68.9 °F 78% 30.08 in 10.0 mi SW 5.8 mph 10.4 mph N/A   Scattered Clouds
11:35 AM 77.0 °F - 68.7 °F 75% 30.07 in 10.0 mi SSW 8.1 mph - N/A   Scattered Clouds
11:55 AM 77.9 °F - 68.0 °F 71% 30.08 in 10.0 mi WSW 5.8 mph - N/A   Clear
12:15 PM 80.4 °F 83.2 °F 68.5 °F 67% 30.07 in 10.0 mi WSW 5.8 mph - N/A   Clear
12:35 PM 81.7 °F 84.7 °F 68.4 °F 64% 30.07 in 10.0 mi SSW 4.6 mph - N/A   Clear
12:55 PM 82.4 °F 83.5 °F 63.3 °F 52% 30.06 in 10.0 mi SSW 6.9 mph - N/A   Clear
1:15 PM 83.7 °F 84.5 °F 62.8 °F 49% 30.05 in 10.0 mi WSW 8.1 mph - N/A   Clear
1:35 PM 84.2 °F 84.8 °F 61.9 °F 47% 30.04 in 10.0 mi SSW 8.1 mph - N/A   Clear
1:55 PM 85.1 °F 85.4 °F 61.5 °F 45% 30.04 in 10.0 mi West 9.2 mph - N/A   Clear
2:15 PM 85.3 °F 85.9 °F 62.1 °F 46% 30.03 in 10.0 mi West 10.4 mph - N/A   Clear
2:35 PM 85.3 °F 85.0 °F 59.7 °F 42% 30.03 in 10.0 mi West 10.4 mph - N/A   Clear
3:15 PM 84.6 °F 83.2 °F 55.0 °F 36% 30.03 in 10.0 mi WNW 8.1 mph - N/A   Clear
3:35 PM 84.7 °F 83.7 °F 56.7 °F 38% 30.03 in 10.0 mi NNW 9.2 mph - N/A   Clear
3:55 PM 84.7 °F 83.6 °F 55.6 °F 37% 30.03 in 10.0 mi NW 6.9 mph - N/A   Clear
4:15 PM 84.4 °F 82.8 °F 53.2 °F 34% 30.03 in 10.0 mi West 9.2 mph - N/A   Clear
4:35 PM 84.7 °F 83.3 °F 54.0 °F 35% 30.03 in 10.0 mi NW 8.1 mph - N/A   Clear
4:55 PM 83.8 °F 82.4 °F 53.4 °F 35% 30.03 in 10.0 mi WNW 8.1 mph - N/A   Clear
5:15 PM 83.1 °F - 52.7 °F 35% 30.03 in 10.0 mi WNW 6.9 mph - N/A   Clear
5:35 PM 82.6 °F - 52.3 °F 35% 30.03 in 10.0 mi NW 8.1 mph - N/A   Clear
5:55 PM 81.3 °F 80.6 °F 53.1 °F 37% 30.03 in 10.0 mi NW 6.9 mph - N/A   Clear
6:15 PM 79.5 °F - 53.6 °F 41% 30.03 in 10.0 mi NW 6.9 mph - N/A   Clear
6:35 PM 77.2 °F - 54.7 °F 46% 30.03 in 10.0 mi NW 4.6 mph - N/A   Clear
6:55 PM 74.1 °F - 55.8 °F 53% 30.03 in 10.0 mi NW 4.6 mph - N/A   Clear
7:15 PM 71.8 °F - 55.8 °F 57% 30.04 in 10.0 mi WNW 4.6 mph - N/A   Clear
7:35 PM 70.5 °F - 55.6 °F 59% 30.04 in 10.0 mi NW 4.6 mph - N/A   Clear
7:55 PM 68.9 °F - 56.3 °F 64% 30.04 in 10.0 mi Calm Calm - N/A   Clear
8:15 PM 67.3 °F - 54.5 °F 63% 30.05 in 10.0 mi Calm Calm - N/A   Clear
8:35 PM 63.5 °F - 52.0 °F 66% 30.05 in 10.0 mi Calm Calm - N/A   Clear
8:55 PM 62.1 °F - 51.4 °F 68% 30.05 in 10.0 mi Calm Calm - N/A   Clear
9:15 PM 61.9 °F - 53.2 °F 73% 30.06 in 10.0 mi Calm Calm - N/A   Clear
9:35 PM 62.6 °F - 55.2 °F 77% 30.07 in 10.0 mi North 4.6 mph - N/A   Clear
9:55 PM 60.4 °F - 52.3 °F 75% 30.08 in 10.0 mi Calm Calm - N/A   Clear
10:15 PM 60.8 °F - 53.1 °F 76% 30.08 in 10.0 mi Calm Calm - N/A   Clear
10:35 PM 60.1 °F - 52.7 °F 77% 30.08 in 10.0 mi Calm Calm - N/A   Clear
10:55 PM 59.5 °F - 53.2 °F 80% 30.09 in 10.0 mi Calm Calm - N/A   Clear
11:15 PM 60.3 °F - 54.9 °F 82% 30.10 in 10.0 mi NNW 5.8 mph - N/A   Clear
11:35 PM 61.2 °F - 56.5 °F 85% 30.10 in 10.0 mi North 5.8 mph - N/A   Clear
11:55 PM 61.0 °F - 55.9 °F 83% 30.10 in 10.0 mi NNW 3.5 mph - N/A   Clear